This demonstration page uses our WeatherBlox Daily Observations layout. Learn more.

Hourly Observations for December 3, 2016

Temp ( °F °C ) Dew Point ( °F °C ) Humidity (%) Winds ( mph kmh ) Pressure ( in mb ) Visibility ( mi km ) Precip ( " mm )
12:54 am 00:54 Clear 26 -3.3 23 -5 88 88 Calm 30.4 1030 10 16.0934 0 0
1:54 am 01:54 Clear 22 -5.6 19 -7.2 89 89 N 3 6 30.39 1029 10 16.0934 0 0
3:54 am 03:54 Cloudy 22 -5.6 20 -6.7 92 92 N 3 6 30.37 1029 10 16.0934 0 0
4:54 am 04:54 Mostly Clear 24 -4.4 21 -6.1 88 88 Calm 30.34 1028 10 16.0934 0 0
5:54 am 05:54 Clear 24 -4.4 21 -6.1 88 88 Calm 30.33 1027 10 16.0934 0 0
6:54 am 06:54 Clear 24 -4.4 21 -6.1 88 88 Calm 30.33 1027 10 16.0934 0 0
7:54 am 07:54 Partly Cloudy 25 -3.9 22 -5.6 88 88 Calm 30.32 1027 9 14.48406 0 0
8:54 am 08:54 Cloudy 28 -2.2 25 -3.9 88 88 Calm 30.32 1027 9 14.48406 0 0
9:54 am 09:54 Cloudy 29 -1.7 26 -3.3 89 89 Calm 30.35 1028 8 12.87472 0 0
10:30 am 10:30 Cloudy with Light Snow 30 -1 28 -2 93 93 S 6 9 30.36 1028 2 3.21868 0 0
10:52 am 10:52 Cloudy with Light Snow 32 0 30 -1 93 93 S 6 9 30.36 1028 2 3.21868 0 0
10:54 am 10:54 Cloudy with Light Snow 32 0 31 -0.6 96 96 S 6 9 30.35 1028 2 3.21868 0.01 0.254
10:56 am 10:56 Mostly Cloudy with Scattered Snow Showers 32 0 30 -1 93 93 S 7 11 30.36 1028 0.75 1.207005 0 0
11:04 am 11:04 Mostly Cloudy with Scattered Snow Showers 32 0 30 -1 93 93 S 6 9 30.36 1028 0.75 1.207005 0 0
11:32 am 11:32 Mostly Cloudy with Scattered Snow Showers 34 1 32 0 93 93 SSE 6 9 30.33 1027 0.75 1.207005 0 0
11:41 am 11:41 Cloudy with Light Snow 33 0.6 32 0 96 96 SE 5 7 30.33 1027 0.75 1.207005 0.03 0.762
11:46 am 11:46 Cloudy with Light Snow 34 1 32 0 93 93 SE 6 9 30.33 1027 1 1.60934 0 0
11:54 am 11:54 Cloudy with Light Snow 33 0.6 32 0 96 96 SSE 5 7 30.3 1026 1 1.60934 0.03 0.762
12:06 pm 12:06 Cloudy with Light Snow 34 1 32 0 93 93 SE 5 7 30.33 1027 0.75 1.207005 0 0
12:35 pm 12:35 Cloudy with Light Snow 33 0.6 32 0 96 96 SE 5 7 30.3 1026 1 1.60934 0.03 0.762
12:43 pm 12:43 Cloudy with Light Snow 33 0.6 32 0 96 96 SE 3 6 30.3 1026 0.75 1.207005 0.04 1.016
12:54 pm 12:54 Cloudy with Light Snow 33 0.6 32 0 96 96 Calm 30.27 1025 0.75 1.207005 0.05 1.27
1:54 pm 13:54 Cloudy with Light Snow 33 0.6 32 0 96 96 SE 5 7 30.25 1024 0.75 1.207005 0.05 1.27
2:12 pm 14:12 Cloudy with Light Snow 34 1 32 0 93 93 SSE 5 7 30.27 1025 1 1.60934 0 0
2:20 pm 14:20 Cloudy with Light Snow 34 1 32 0 93 93 SE 5 7 30.27 1025 0.75 1.207005 0 0
2:23 pm 14:23 Cloudy with Light Snow 33 0.6 32 0 96 96 SE 5 7 30.24 1024 1 1.60934 0.02 0.508
2:54 pm 14:54 Cloudy with Light Snow 33 0.6 32 0 96 96 SE 6 9 30.23 1024 1 1.60934 0.04 1.016
3:06 pm 15:06 Cloudy with Light Snow 34 1 32 0 93 93 SE 6 9 30.24 1024 0.75 1.207005 0 0
3:15 pm 15:15 Cloudy with Light Snow 33 0.6 32 0 96 96 SE 5 7 30.24 1024 0.75 1.207005 0.01 0.254
3:54 pm 15:54 Cloudy with Light Snow 33 0.6 32 0 96 96 SE 8 13 30.21 1023 1 1.60934 0.05 1.27
4:02 pm 16:02 Cloudy with Light Snow 33 0.6 32 0 96 96 ESE 7 11 30.21 1023 0.75 1.207005 0.01 0.254
4:10 pm 16:10 Cloudy with Light Snow 34 1 32 0 93 93 ESE 6 9 30.21 1023 1 1.60934 0 0
4:54 pm 16:54 Cloudy with Light Snow 33 0.6 32 0 96 96 ESE 5 7 30.18 1022 1 1.60934 0.04 1.016
5:54 pm 17:54 Cloudy with Light Snow 33 0.6 32 0 96 96 E 5 7 30.17 1022 1 1.60934 0.06 1.524
6:07 pm 18:07 Cloudy with Light Snow 33 0.6 32 0 96 96 E 5 7 30.18 1022 1 1.60934 0.01 0.254
6:26 pm 18:26 Cloudy with Light Snow 34 1 32 0 93 93 ESE 6 9 30.18 1022 1.25 2.011675 0 0
6:54 pm 18:54 Cloudy with Light Snow 33 0.6 32 0 96 96 ESE 5 7 30.16 1021 1 1.60934 0.06 1.524
7:08 pm 19:08 Cloudy with Light Snow 34 1 32 0 93 93 E 3 6 30.18 1022 1.75 2.816345 0 0
7:39 pm 19:39 Cloudy with Light Snow 33 0.6 32 0 96 96 NE 3 6 30.18 1022 1.75 2.816345 0.03 0.762
7:54 pm 19:54 Cloudy with Light Snow 33 0.6 32 0 96 96 ESE 3 6 30.14 1021 1.75 2.816345 0.04 1.016
8:06 pm 20:06 Cloudy with Light Snow 34 1 32 0 93 93 ESE 3 6 30.15 1021 1.25 2.011675 0 0
8:54 pm 20:54 Cloudy with Light Snow 33 0.6 32 0 96 96 Calm 30.13 1020 1.25 2.011675 0.05 1.27
9:54 pm 21:54 Cloudy with Light Snow 33 0.6 32 0 96 96 Calm 30.12 1020 1.25 2.011675 0.02 0.508
10:06 pm 22:06 Cloudy with Light Snow 34 1 32 0 93 93 Calm 30.15 1021 1.25 2.011675 0 0
10:39 pm 22:39 Cloudy with Light Snow 33 0.6 32 0 96 96 Calm 30.15 1021 1.25 2.011675 0.02 0.508
10:54 pm 22:54 Cloudy with Light Snow 32 0 32 0 100 100 Calm 30.1 1019 1.25 2.011675 0.03 0.762
11:03 pm 23:03 Cloudy with Light Snow 32 0 32 0 100 100 SE 5 7 30.12 1020 1.5 2.41401 0 0.0254
11:10 pm 23:10 Cloudy with Light Snow 34 1 34 1 100 100 Calm 30.12 1020 1.75 2.816345 0 0
11:25 pm 23:25 Cloudy with Light Snow 32 0 32 0 100 100 Calm 30.12 1020 0.75 1.207005 0 0.0254
11:32 pm 23:32 Cloudy with Light Snow 32 0 32 0 100 100 Calm 30.12 1020 0.5 0.80467 0 0.0254
11:41 pm 23:41 Cloudy with Light Snow 32 0 32 0 100 100 Calm 30.12 1020 0.5 0.80467 0 0.0254
11:54 pm 23:54 Cloudy with Light Snow 32 0 32 0 100 100 Calm 30.09 1019 0.75 1.207005 0 0.0254
11:58 pm 23:58 Cloudy with Mist and Fog 32 0 32 0 100 100 Calm 30.12 1020 1 1.60934 0 0

Powered by AerisWeather